{"data":{"norad_id":63837,"epoch":"2026-09-20T03:58:21.164736Z","epoch_age_seconds":178745,"freshness":"STALE","line1":"1 63837U 25093B   26263.16552274  .00012647  00000+0  46758-3 0  9999","line2":"2 63837  43.0044  59.7007 0001749 283.3211  76.7446 15.27632858 77659","mean_motion":15.27632858,"eccentricity":0.0001749,"inclination_deg":43.0044,"raan_deg":59.7007,"arg_perigee_deg":283.3211,"mean_anomaly_deg":76.7446,"bstar":0.00046758,"rev_number":7765,"period_min":94.263486966709,"perigee_km":481.69083096934,"apogee_km":484.09081850244,"semimajor_km":6861.0278247359,"source":"CELESTRAK","updated_at":"2026-09-21T09:00:35.110426Z"}}